www.pogodaiklimat.ru
ПОГОДА в Оушенсайде
Время
и дата
03:52 20.07
04:14 20.07
04:22 20.07
04:52 20.07
05:52 20.07
06:11 20.07
06:29 20.07
06:37 20.07
06:52 20.07
07:04 20.07
07:27 20.07
07:52 20.07
08:24 20.07
08:52 20.07
09:27 20.07
09:52 20.07
10:52 20.07
11:52 20.07
12:52 20.07
13:52 20.07
14:52 20.07
15:52 20.07
16:00 20.07
16:52 20.07
17:44 20.07
17:52 20.07
18:40 20.07
18:52 20.07
19:52 20.07
20:52 20.07
21:44 20.07
21:52 20.07
22:08 20.07
22:52 20.07
23:02 20.07
23:52 20.07
23:59 20.07
00:08 21.07
00:52 21.07
01:52 21.07
02:52 21.07
03:04 21.07
03:52 21.07
04:52 21.07
05:52 21.07
06:52 21.07
07:03 21.07
07:52 21.07
Ветер
(напр.,м/с)
Видим. Явления Облачность Т
(С)
Тd
(С)
f
(%)
Тe
(С)
Тes
(С)
Комфортность P
(гПа)
Po
(гПа)
Тmin
(С)
Tmax
(С)
R
(мм)
R24
(мм)
S
(см)
штиль 0 4 км дымка 10/10 60 м +18.9 +17.8 93 +20 +20 1012.6 1011.7 +18.9 +20.0
штиль 0 5 км дымка 10/10 60 м +19.4 +17.8 90 +21 +21 комфорт 1011.7
штиль 0 3 км дымка 10/10 60 м +19.4 +17.8 90 +21 +21 комфорт 1011.7
штиль 0 2 км дымка 10/10 60 м +19.4 +17.8 90 +21 +21 комфорт 1012.8 1011.7
штиль 0 2 км дымка 10/10 90 м +19.4 +18.3 93 +21 +21 комфорт 1013.6 1012.3
штиль 0 3 км дымка 10/10 60 м +19.4 +18.3 93 +21 +21 комфорт 1012.3
Ю 2 3 км дымка 10/10 90 м +19.4 +18.3 93 +22 +22 комфорт 1012.7
штиль 0 3 км дымка 10/10 90 м +19.4 +18.3 93 +21 +21 комфорт 1012.3
З 2 3 км дымка 10/10 90 м +19.4 +18.3 93 +22 +22 комфорт 1013.8 1012.7
штиль 0 3 км дымка 10/10 90 м +19.4 +18.3 93 +21 +21 комфорт 1013.0
штиль 0 5 км дымка 10/10 90 м +20.0 +18.3 90 +23 +23 комфорт 1012.7
ЮЗ 3 6 км дымка 10/10 120 м +20.0 +18.3 90 +23 +23 комфорт 1013.9 1012.7
ЮЗ 2 8 км мгла 10/10 150 м +21.1 +17.8 81 +25 +25 комфорт 1013.0
ЮЗ 3 8 км мгла 10/10 210 м +21.7 +18.3 81 +26 +26 душно 1014.0 1013.0
ЮЗ 4 8 км мгла 8/8 240 м +22.8 +17.8 73 +28 +30 душно 1013.0
З 3 8 км мгла 5/5 240 м +23.3 +17.8 71 +29 +34 душно 1013.8 1012.7 +18.9 +23.3
З 4 8 км мгла ясно +22.8 +17.8 73 +28 +40 душно 1013.9 1012.7
З 4 8 км мгла ясно +25.0 +18.3 66 +29 +43 душно 1013.3 1012.3
З 4 10 км мгла ясно +24.4 +18.3 69 +29 +43 душно 1012.8 1011.7
З 6 10 км мгла ясно +25.0 +18.3 66 +29 +37 душно 1012.5 1011.3
ЮЗ 5 10 км мгла ясно +25.0 +18.3 66 +29 +38 душно 1011.8 1010.7
ЮЗ 4 10 км мгла ясно +23.3 +18.3 73 +29 +37 душно 1011.6 1010.7 +22.8 +26.1
З 5 10 км мгла 2/2 270 м +23.3 +18.3 73 +29 +32 душно 1010.3
З 3 10 км мгла 2/2 300 м +23.3 +18.3 73 +29 +34 душно 1011.3 1010.3
З 3 10 км мгла 8/8 270 м +21.7 +18.3 81 +26 +27 душно 1010.3
З 3 10 км мгла 8/8 270 м +21.1 +17.8 81 +25 +25 комфорт 1011.3 1010.3
З 2 10 км мгла 5/5 270 м +20.6 +17.8 84 +25 +25 комфорт 1010.3
З 2 10 км мгла ясно +20.6 +17.8 84 +25 +25 комфорт 1011.6 1010.3
З 2 11 км ясно +20.0 +17.8 87 +24 +24 комфорт 1011.9 1010.7
З 2 10 км дымка ясно +19.4 +17.8 90 +22 +22 комфорт 1012.3 1011.3
штиль 0 10 км дымка 2/2 210 м +19.4 +17.8 90 +21 +21 комфорт 1011.3
штиль 0 10 км дымка 2/2 210 м +19.4 +17.8 90 +21 +21 комфорт 1012.5 1011.3 +19.4 +23.3
штиль 0 10 км дымка 8/8 240 м +20.0 +17.8 87 +23 +23 комфорт 1011.3
штиль 0 11 км 8/8 240 м +20.0 +17.8 87 +23 +23 комфорт 1012.3 1011.3
штиль 0 10 км дымка 5/5 240 м +19.4 +17.8 90 +21 +21 комфорт 1011.0
штиль 0 10 км дымка ясно +19.4 +17.2 87 +21 +21 комфорт 1012.0 1011.0
штиль 0 8 км дымка 5/5 240 м +18.9 +17.2 90 +20 +20 1011.0
штиль 0 10 км дымка 8/8 240 м +18.9 +17.2 90 +20 +20 1010.7
штиль 0 8 км дымка 10/10 270 м +18.9 +17.2 90 +20 +20 1011.8 1010.7
штиль 0 8 км дымка 10/10 270 м +19.4 +17.8 90 +21 +21 комфорт 1011.3 1010.3
штиль 0 10 км дымка 10/10 240 м +20.0 +18.3 90 +23 +23 комфорт 1011.0 1010.0
штиль 0 10 км дымка 10/10 210 м +20.0 +18.3 90 +23 +23 комфорт 1010.0
штиль 0 10 км дымка 10/10 240 м +20.0 +18.3 90 +23 +23 комфорт 1011.0 1010.0 +18.9 +20.0
С 2 10 км дымка 10/10 240 м +20.0 +17.8 87 +24 +24 комфорт 1011.1 1010.0
штиль 0 6 км дымка 10/10 240 м +20.6 +18.3 87 +24 +24 комфорт 1011.8 1010.7
Ю 2 8 км мгла 10/10 270 м +21.1 +17.8 81 +25 +25 комфорт 1012.0 1011.0
штиль 0 8 км мгла 10/10 300 м +21.1 +18.3 84 +25 +25 комфорт 1011.0
Ю 2 10 км мгла 10/10 330 м +21.7 +18.3 81 +26 +26 душно 1012.7 1011.7
Местоположение метеостанции Oceanside Municipal Airport: широта 33.2181 долгота -117.3514 высота над уровнем моря 9 м.
В архиве по умолчанию представлена погода в Оушенсайде за последние 1-2 суток. Обновление информации о фактической погоде в базе происходит ежечасно! Архивные данные за месяц целиком и за предыдущие месяцы Вы можете получить, выбрав интересующий диапазон дат из раскрывающегося списка и нажав кнопку "Ввод!".
Внимание! Архив погоды МЕТАР в базе сайта по станциям, не включенным в климатический монитор, хранится не более 60 дней. Нет смысла пытаться выбрать более раннюю дату.
*Определитесь, кто Вы:
Внимание! Время в таблицах - местное (без учета летнего времени). Для получения всемирного времени необходимо вычесть поправку, которая равна -8 ч.
Смотрите также архив погоды в соседних городах и на ближайших метеорологических станциях:
Партнеры нашего сайта:      
Пояснения к столбцам:
  • Ветер - указаны скорость ветра в м/с - средняя за 10 мин, порывы в срок и между сроками (в фигурных скобках) и направление, откуда дует ветер: С - северный,
  • СВ - северо-восточный, В - восточный, ЮВ - юго-восточный, Ю - южный, ЮЗ - юго-западный, З - западный, СЗ - северо-западный.
  • Видимость - горизонтальная дальность видимости в метрах или километрах. При видимости от 1 до 10 км при отсутствии осадков обычно наблюдается дымка, при ухудшении видимости до 1 км и менее - туман. В сухую погоду видимость может ухудшаться дымом, пылью или мглою.
  • Явления - указаны атмосферные явления, наблюдавшиеся в срок или в последний час перед сроком; фигурными скобками обозначены явления, наблюдавшиеся между сроками (за 1-3 часа до срока); квадратными скобками обозначены град или гололедные отложения с указанием их диаметра в мм.
  • Облачность - указаны через наклонную черту общая и нижняя облачность в баллах и высота нижней границы облаков в метрах; квадратными скобками обозначены формы облаков: Ci - перистые, Cs - перисто-слоистые, Cc - перисто-кучевые, Ac - высококучевые, As - высокослоистые, Sc - слоисто-кучевые, Ns - слоисто-дождевые, Cu - кучевые, Cb - кучево-дождевые. Подробнее классификацию облаков см. в Атласе облаков (PDF).
  • T - Температура воздуха - температура, измеренная на высоте 2 м над землей.
  • Td - Температура точки росы - температура, при понижении до которой содержащийся в воздухе водяной пар достигнет насыщения.
  • f - Относительная влажность воздуха - влажноcть воздуха, измеренная на высоте 2 м над землей.
  • Te - Эффективная температура - температура, которую ощущает одетый по сезону человек в тени. Характеристика душности погоды. При расчете учитывается влияние влажности воздуха и скорости ветра на теплоощущения человека.
  • Tes - Эффективная температура на солнце - температура, которую ощущает человек, с поправкой на солнечный нагрев. Характеристика знойности погоды. Зависит от высоты солнца над горизонтом, облачности и скорости ветра. Ночью, в пасмурную погоду, а также при ветре 12 м/с и более поправка равна нулю.
  • P - Атмосферное давление - приведенное к уровню моря атмосферное давление.
  • Po - Атмосферное давление - измеренное на уровне метеостанции атмосферное давление.
  • Tmin - Минимальная температура - минимум температуры воздуха на высоте 2 м над землей.
  • Tmax - Максимальная температура - максимум температуры воздуха на высоте 2 м над землей.
  • R - Количество осадков - Количество выпавших осадков за период времени, мм. При наведении курсора мыши на число - период времени, за который выпало указанное количество осадков.
  • R24 - Количество осадков - Количество выпавших осадков за 24 часа, мм.
  • S - Снежный покров - Высота снежного покрова, см. При наведении курсора мыши на число - состояние снежного покрова и степень покрытия местности в баллах.